Home > Weather > San Jose > Past weeks

Flag for U.S.A. Weather for the Past 2 Weeks in San Jose, California, U.S.A.

Now
76 °F

Sunny.


Feels Like: 78 °F
Forecast: 45 / 77 °F
Wind: 5 mph from Northwest

Location: San Jose International Airport

Current Time: Feb 8, 2016 at 3:37:43 PM

Latest Report: Feb 8, 2016 at 2:53 PM


Visibility: 10 mi

Pressure: 30.14 "Hg

Humidity: 40%

Dew point: 50 °F

Location of San JoseLocation

Historic Weather in San Jose — Graph

°F

San Jose Temperature Yesterday

Maximum temperature yesterday: 76 °F (at 2:53 PM)
Minimum temperature yesterday: 45 °F (at 5:53 AM)
Average temperature yesterday: 59 °F

High & Low Weather Summary for the Past Weeks

 TemperatureHumidityPressure
High76 °F (Feb 7, 2:53 PM)93% (Jan 26, 1:53 AM)30.46 "Hg (Jan 26, 1:53 AM)
Low39 °F (Feb 2, 12:53 AM)23% (Feb 7, 2:53 PM)29.76 "Hg (Jan 31, 2:53 PM)
Average53 °F70%30.23 "Hg
* Reported Jan 24 1:53 PM — Feb 8 1:53 PM, San Jose, Weather by CustomWeather, © 2016

Note: Actual official high and low records may vary slightly from our data, if they occured in-between our weather recording intervals... More about our weather records

Advertising

San Jose Weather History for the Previous 24 Hours

 ConditionsComfort  
Time TempWeatherWind HumidityBarometerVisibility
1:53 PM
Mon, Feb 8
75 °FSunny.3 mph34%30.16 "Hg10 mi
12:53 PM73 °FSunny.No wind36%30.19 "Hg10 mi
11:53 AM69 °FSunny.No wind44%30.22 "Hg10 mi
10:53 AM65 °FSunny.No wind54%30.25 "Hg10 mi
9:53 AM59 °FSunny.No wind64%30.26 "Hg10 mi
8:53 AM56 °FSunny.No wind67%30.25 "Hg10 mi
7:53 AM49 °FSunny.3 mph77%30.24 "Hg10 mi
6:53 AM47 °FClear.6 mph80%30.22 "Hg10 mi
5:53 AM46 °FClear.3 mph83%30.22 "Hg10 mi
4:53 AM47 °FClear.3 mph80%30.21 "Hg10 mi
3:53 AM45 °FClear.5 mph82%30.20 "Hg10 mi
2:53 AM50 °FClear.No wind74%30.19 "Hg10 mi
1:53 AM50 °FClear.No wind71%30.19 "Hg10 mi
12:53 AM54 °FClear.No wind67%30.19 "Hg10 mi
11:53 PM
Sun, Feb 7
52 °FClear.5 mph69%30.20 "Hg10 mi
10:53 PM56 °FClear.3 mph62%30.20 "Hg10 mi
9:53 PM58 °FClear.3 mph58%30.20 "Hg10 mi
8:53 PM63 °FClear.No wind48%30.19 "Hg10 mi
7:53 PM63 °FClear.5 mph47%30.18 "Hg10 mi
6:53 PM66 °FClear.6 mph43%30.17 "Hg10 mi
5:53 PM69 °FClear.9 mph36%30.17 "Hg10 mi
4:53 PM74 °FSunny.15 mph27%30.16 "Hg10 mi
3:53 PM75 °FPassing clouds.10 mph24%30.16 "Hg10 mi
Weather by CustomWeather, © 2016

See weather overviewHow to use our weather pages